IRIDIUM 33 DEB, 34538

Orbit data source: Space-Track

IRIDIUM 33 DEB, 34538 is space debris in LEO originally from a launch on Sun, 14 Sep 1997 UTC launched from the Tyuratam Missile And Space Complex (TTMTR). The debris from Iridium 33, an American commercial communications satellite, has been tracked extensively since its accidental collision with the defunct Russian satellite Cosmos 2251 in 2009. This event, occurring at high speed in low Earth orbit (LEO), generated thousands of pieces of space debris, significantly increasing the risk of further collisions. The Iridium 33 debris cloud has impacted space traffic management and orbital debris mitigation strategies, making it a subject of ongoing study in space situational awareness.

Loading next visibility...
Identifier
34538, 1997-051JF
Orbit
LEO
Country
Flag of USUS
Related business
Manufacturer
Unknown
Mission
Spacecraft
Bus & Motor
Unknown
Mass
Unknown
Launch date (UTC)
1997-09-14 (28 years ago)
Launch vehicle
Unknown
Launch site
Tyuratam Missile And Space Complex (TTMTR)
Object type
Payload
Rocket body
Debris
Shape & HBR
Unknown shape, 0.1 m
Radar Cross Section
Small (<0.1 m²)

Expand to show TLE details & history
Last TLE update: 13 hours ago

TLE from 13 hours ago
0 IRIDIUM 33 DEB
1 34538U 97051JF  25355.06607840  .00002106  00000-0  62386-3 0  9993
2 34538  86.2756   1.9085 0032129 299.2748 120.1936 14.42692140878761
Epoch: 2025-12-21T01:35Z
TLE epoch observation values (Epoch: 2025-12-21T01:35:09.173Z)
Latitude
59.67378°
Longitude
-105.40869°
Altitude
771.416 km
Speed
7.468 km/s
True Right ascension
00h 33m 03s
True Declination
59° 31' 26"
Sunlit
Object was in daylight at epoch
Visualization orbit readout
Latitude
Unknown
Longitude
Unknown
Altitude
Unknown
Speed
Unknown
Apparent Right ascension
Unknown
Apparent Declination
Unknown
Sunlit
N/A
Visualization observer readout
Local Sidereal Time
13:07:34
Azimuth
Unknown
Elevation
Unknown
Doppler factor
Unknown
Orbital elements
Apogee altitude
769.463 km
Perigee altitude
723.681 km
Semi-major axis
7,124.709 km
Eccentricity
0.00321
Inclination
86.2756°
RAAN
1.9085°
Arg. of periapsis
299.2748°
True anomaly
120.51118°
Mean anomaly
120.1936°
Eccentric anomaly
120.35245°
Mean motion
3.60905 °/min
Orbital period
99.75 mins
BSTAR
0.00062386
Loading maneuver chart data...
Computing Atmospheric mass density...

Documentation

Showing up to 5 results
|